Time,TemperatureF,DewpointF,PressureIn,WindDirection,WindDirectionDegrees,WindSpeedMPH,WindSpeedGustMPH,Humidity,HourlyPrecipIn,Conditions,Clouds,dailyrainin,SoftwareType,DateUTC
2013-06-30 00:06:00,64.2,59.0,29.68,ESE,109,0.0,-999.0,84,-99.99,,,0.00,weatherlink.com 1.10,2013-06-30 04:06:00,
2013-06-30 00:21:00,64.1,60.0,29.68,ESE,109,0.0,-999.0,85,-99.99,,,0.00,weatherlink.com 1.10,2013-06-30 04:21:00,
2013-06-30 00:37:00,64.0,60.0,29.68,ESE,109,0.0,-999.0,85,-99.99,,,0.00,weatherlink.com 1.10,2013-06-30 04:37:00,
2013-06-30 00:52:00,63.9,59.0,29.69,ESE,109,0.0,-999.0,84,-99.99,,,0.00,weatherlink.com 1.10,2013-06-30 04:52:00,
2013-06-30 01:07:00,63.7,59.0,29.69,ESE,109,0.0,-999.0,84,-99.99,,,0.00,weatherlink.com 1.10,2013-06-30 05:07:00,
2013-06-30 01:22:00,63.6,59.0,29.70,ESE,109,0.0,-999.0,85,-99.99,,,0.00,weatherlink.com 1.10,2013-06-30 05:22:00,
2013-06-30 01:37:00,63.4,59.0,29.69,ESE,123,0.0,-999.0,85,-99.99,,,0.00,weatherlink.com 1.10,2013-06-30 05:37:00,
2013-06-30 01:52:00,63.3,59.0,29.70,ESE,123,0.0,-999.0,85,-99.99,,,0.00,weatherlink.com 1.10,2013-06-30 05:52:00,
2013-06-30 02:07:00,63.2,59.0,29.70,ESE,113,0.0,-999.0,85,-99.99,,,0.00,weatherlink.com 1.10,2013-06-30 06:07:00,
2013-06-30 02:22:00,63.1,59.0,29.70,ESE,107,0.0,-999.0,85,-99.99,,,0.00,weatherlink.com 1.10,2013-06-30 06:22:00,
2013-06-30 02:37:00,63.0,59.0,29.70,ESE,120,0.0,-999.0,85,-99.99,,,0.00,weatherlink.com 1.10,2013-06-30 06:37:00,
2013-06-30 02:52:00,62.7,59.0,29.70,ESE,120,0.0,-999.0,86,-99.99,,,0.00,weatherlink.com 1.10,2013-06-30 06:52:00,
2013-06-30 03:07:00,62.5,58.0,29.70,ESE,120,0.0,-999.0,86,-99.99,,,0.00,weatherlink.com 1.10,2013-06-30 07:07:00,
2013-06-30 03:22:00,62.3,58.0,29.70,ESE,120,0.0,-999.0,87,-99.99,,,0.00,weatherlink.com 1.10,2013-06-30 07:22:00,
2013-06-30 03:37:00,62.1,59.0,29.71,ESE,120,0.0,-999.0,88,-99.99,,,0.00,weatherlink.com 1.10,2013-06-30 07:37:00,
2013-06-30 03:52:00,61.9,58.0,29.71,ESE,120,0.0,-999.0,88,-99.99,,,0.00,weatherlink.com 1.10,2013-06-30 07:52:00,
2013-06-30 04:07:00,61.8,58.0,29.71,ESE,120,0.0,-999.0,88,-99.99,,,0.00,weatherlink.com 1.10,2013-06-30 08:07:00,
2013-06-30 04:22:00,61.8,58.0,29.71,ESE,120,0.0,-999.0,88,-99.99,,,0.00,weatherlink.com 1.10,2013-06-30 08:22:00,
2013-06-30 04:37:00,61.7,58.0,29.71,ESE,120,0.0,-999.0,88,-99.99,,,0.00,weatherlink.com 1.10,2013-06-30 08:37:00,
2013-06-30 04:52:00,61.7,58.0,29.71,ESE,120,0.0,-999.0,88,-99.99,,,0.00,weatherlink.com 1.10,2013-06-30 08:52:00,
2013-06-30 05:07:00,61.7,59.0,29.72,ESE,120,0.0,-999.0,89,-99.99,,,0.00,weatherlink.com 1.10,2013-06-30 09:07:00,
2013-06-30 05:22:00,61.4,59.0,29.72,ESE,120,0.0,-999.0,90,-99.99,,,0.00,weatherlink.com 1.10,2013-06-30 09:22:00,
2013-06-30 05:37:00,61.2,59.0,29.72,ESE,120,0.0,-999.0,91,-99.99,,,0.00,weatherlink.com 1.10,2013-06-30 09:37:00,
2013-06-30 05:52:00,61.0,58.0,29.72,ESE,120,0.0,-999.0,91,-99.99,,,0.00,weatherlink.com 1.10,2013-06-30 09:52:00,
2013-06-30 06:07:00,60.8,58.0,29.73,ESE,120,0.0,-999.0,91,-99.99,,,0.00,weatherlink.com 1.10,2013-06-30 10:07:00,
2013-06-30 06:22:00,60.8,59.0,29.73,ESE,120,0.0,-999.0,92,-99.99,,,0.00,weatherlink.com 1.10,2013-06-30 10:22:00,
2013-06-30 06:37:00,60.8,59.0,29.73,ESE,120,0.0,-999.0,92,-99.99,,,0.00,weatherlink.com 1.10,2013-06-30 10:37:00,
2013-06-30 06:52:00,61.0,59.0,29.74,ESE,120,0.0,-999.0,92,-99.99,,,0.00,weatherlink.com 1.10,2013-06-30 10:52:00,
2013-06-30 07:07:00,61.3,59.0,29.74,ESE,120,0.0,-999.0,93,-99.99,,,0.00,weatherlink.com 1.10,2013-06-30 11:07:00,
2013-06-30 07:22:00,61.7,60.0,29.75,ESE,120,0.0,-999.0,93,-99.99,,,0.00,weatherlink.com 1.10,2013-06-30 11:22:00,
2013-06-30 07:37:00,62.4,60.0,29.75,ESE,120,0.0,-999.0,93,-99.99,,,0.00,weatherlink.com 1.10,2013-06-30 11:37:00,
2013-06-30 07:52:00,63.5,61.0,29.75,ESE,120,0.0,-999.0,91,-99.99,,,0.00,weatherlink.com 1.10,2013-06-30 11:52:00,
2013-06-30 08:07:00,64.9,61.0,29.75,ESE,120,0.0,-999.0,88,-99.99,,,0.00,weatherlink.com 1.10,2013-06-30 12:07:00,
2013-06-30 08:22:00,66.9,62.0,29.75,SSE,149,0.0,-999.0,85,-99.99,,,0.00,weatherlink.com 1.10,2013-06-30 12:22:00,
2013-06-30 08:37:00,68.2,62.0,29.76,ENE,57,0.0,-999.0,81,-99.99,,,0.00,weatherlink.com 1.10,2013-06-30 12:37:00,
2013-06-30 08:52:00,68.9,61.0,29.76,ENE,70,1.0,-999.0,77,-99.99,,,0.00,weatherlink.com 1.10,2013-06-30 12:52:00,
2013-06-30 09:07:00,68.8,62.0,29.77,East,89,0.0,-999.0,78,-99.99,,,0.00,weatherlink.com 1.10,2013-06-30 13:07:00,
2013-06-30 09:22:00,68.9,62.0,29.77,SSE,164,0.0,-999.0,78,-99.99,,,0.00,weatherlink.com 1.10,2013-06-30 13:22:00,
2013-06-30 09:37:00,70.0,63.0,29.77,East,86,0.0,-999.0,77,-99.99,,,0.00,weatherlink.com 1.10,2013-06-30 13:37:00,
2013-06-30 09:53:00,71.1,63.0,29.78,SSE,151,0.0,-999.0,76,-99.99,,,0.00,weatherlink.com 1.10,2013-06-30 13:53:00,
2013-06-30 10:08:00,70.8,63.0,29.78,SE,134,0.0,-999.0,75,-99.99,,,0.00,weatherlink.com 1.10,2013-06-30 14:08:00,
2013-06-30 10:23:00,71.0,63.0,29.78,ESE,121,1.0,-999.0,75,-99.99,,,0.00,weatherlink.com 1.10,2013-06-30 14:23:00,
2013-06-30 10:38:00,70.9,61.0,29.78,ESE,121,5.0,-999.0,71,-99.99,,,0.00,weatherlink.com 1.10,2013-06-30 14:38:00,
2013-06-30 10:53:00,71.7,62.0,29.78,SE,144,0.0,-999.0,72,-99.99,,,0.00,weatherlink.com 1.10,2013-06-30 14:53:00,
2013-06-30 11:08:00,73.0,62.0,29.79,ESE,109,2.0,-999.0,69,-99.99,,,0.00,weatherlink.com 1.10,2013-06-30 15:08:00,
2013-06-30 11:23:00,72.8,62.0,29.79,ESE,123,2.0,-999.0,69,-99.99,,,0.00,weatherlink.com 1.10,2013-06-30 15:23:00,
2013-06-30 11:38:00,73.4,62.0,29.79,SE,128,1.0,-999.0,67,-99.99,,,0.00,weatherlink.com 1.10,2013-06-30 15:38:00,
2013-06-30 11:53:00,73.8,61.0,29.80,ESE,109,9.0,-999.0,64,-99.99,,,0.00,weatherlink.com 1.10,2013-06-30 15:53:00,
2013-06-30 12:23:00,73.9,61.0,29.80,SE,131,7.0,-999.0,64,-99.99,,,0.00,weatherlink.com 1.10,2013-06-30 16:23:00,
2013-06-30 12:38:00,74.3,61.0,29.80,East,95,1.0,-999.0,63,-99.99,,,0.00,weatherlink.com 1.10,2013-06-30 16:38:00,
2013-06-30 12:53:00,74.9,60.0,29.80,SE,140,4.0,-999.0,61,-99.99,,,0.00,weatherlink.com 1.10,2013-06-30 16:53:00,
2013-06-30 13:08:00,74.7,61.0,29.80,East,89,2.0,-999.0,63,-99.99,,,0.00,weatherlink.com 1.10,2013-06-30 17:08:00,
2013-06-30 13:23:00,75.2,61.0,29.80,ENE,76,3.0,-999.0,61,-99.99,,,0.00,weatherlink.com 1.10,2013-06-30 17:23:00,
2013-06-30 13:38:00,76.0,62.0,29.80,SE,129,4.0,-999.0,62,-99.99,,,0.00,weatherlink.com 1.10,2013-06-30 17:38:00,
2013-06-30 13:53:00,76.5,61.0,29.80,ESE,113,2.0,-999.0,60,-99.99,,,0.00,weatherlink.com 1.10,2013-06-30 17:53:00,
2013-06-30 14:08:00,76.9,62.0,29.80,East,94,4.0,-999.0,60,-99.99,,,0.00,weatherlink.com 1.10,2013-06-30 18:08:00,
2013-06-30 14:23:00,76.8,60.0,29.80,SE,133,5.0,-999.0,56,-99.99,,,0.00,weatherlink.com 1.10,2013-06-30 18:23:00,
2013-06-30 14:38:00,77.1,61.0,29.80,ESE,119,0.0,-999.0,57,-99.99,,,0.00,weatherlink.com 1.10,2013-06-30 18:38:00,
2013-06-30 14:53:00,76.8,59.0,29.80,ESE,113,4.0,-999.0,54,-99.99,,,0.00,weatherlink.com 1.10,2013-06-30 18:53:00,
2013-06-30 15:08:00,76.4,60.0,29.79,ENE,70,2.0,-999.0,58,-99.99,,,0.00,weatherlink.com 1.10,2013-06-30 19:08:00,
2013-06-30 15:23:00,76.8,59.0,29.80,ESE,118,2.0,-999.0,55,-99.99,,,0.00,weatherlink.com 1.10,2013-06-30 19:23:00,
2013-06-30 15:38:00,77.0,60.0,29.79,East,92,4.0,-999.0,56,-99.99,,,0.00,weatherlink.com 1.10,2013-06-30 19:38:00,
2013-06-30 15:53:00,77.3,61.0,29.79,East,82,3.0,-999.0,57,-99.99,,,0.00,weatherlink.com 1.10,2013-06-30 19:53:00,
2013-06-30 16:08:00,77.5,61.0,29.80,SE,125,5.0,-999.0,58,-99.99,,,0.00,weatherlink.com 1.10,2013-06-30 20:08:00,
2013-06-30 16:23:00,77.0,60.0,29.80,SSE,156,4.0,-999.0,57,-99.99,,,0.00,weatherlink.com 1.10,2013-06-30 20:23:00,
2013-06-30 16:38:00,77.3,61.0,29.80,SSE,166,4.0,-999.0,57,-99.99,,,0.00,weatherlink.com 1.10,2013-06-30 20:38:00,
2013-06-30 16:53:00,76.2,59.0,29.80,ESE,113,6.0,-999.0,56,-99.99,,,0.00,weatherlink.com 1.10,2013-06-30 20:53:00,
2013-06-30 17:08:00,76.0,60.0,29.81,ESE,103,2.0,-999.0,57,-99.99,,,0.00,weatherlink.com 1.10,2013-06-30 21:08:00,
2013-06-30 17:23:00,74.9,60.0,29.81,West,280,0.0,-999.0,60,-99.99,,,0.00,weatherlink.com 1.10,2013-06-30 21:23:00,
2013-06-30 17:38:00,74.3,63.0,29.82,South,184,0.0,-999.0,68,-99.99,,,0.00,weatherlink.com 1.10,2013-06-30 21:38:00,
2013-06-30 17:53:00,73.7,63.0,29.82,East,90,0.0,-999.0,70,-99.99,,,0.00,weatherlink.com 1.10,2013-06-30 21:53:00,
2013-06-30 18:08:00,73.5,63.0,29.82,SSE,163,1.0,-999.0,70,-99.99,,,0.00,weatherlink.com 1.10,2013-06-30 22:08:00,
2013-06-30 18:23:00,72.7,63.0,29.82,East,97,2.0,-999.0,72,-99.99,,,0.00,weatherlink.com 1.10,2013-06-30 22:23:00,
2013-06-30 18:38:00,71.9,63.0,29.83,ESE,115,0.0,-999.0,74,-99.99,,,0.00,weatherlink.com 1.10,2013-06-30 22:38:00,
2013-06-30 18:53:00,71.3,63.0,29.83,ESE,103,0.0,-999.0,75,-99.99,,,0.00,weatherlink.com 1.10,2013-06-30 22:53:00,
2013-06-30 19:08:00,71.1,63.0,29.83,SE,130,0.0,-999.0,75,-99.99,,,0.00,weatherlink.com 1.10,2013-06-30 23:08:00,
2013-06-30 19:23:00,71.1,63.0,29.84,ESE,109,0.0,-999.0,75,-99.99,,,0.00,weatherlink.com 1.10,2013-06-30 23:23:00,
2013-06-30 19:39:00,70.8,63.0,29.84,East,80,0.0,-999.0,75,-99.99,,,0.00,weatherlink.com 1.10,2013-06-30 23:39:00,
2013-06-30 19:54:00,70.5,63.0,29.85,ESE,113,0.0,-999.0,76,-99.99,,,0.00,weatherlink.com 1.10,2013-06-30 23:54:00,
2013-06-30 20:09:00,70.4,61.0,29.85,ENE,78,0.0,-999.0,73,-99.99,,,0.00,weatherlink.com 1.10,2013-07-01 00:09:00,
2013-06-30 20:24:00,70.3,61.0,29.86,East,85,0.0,-999.0,73,-99.99,,,0.00,weatherlink.com 1.10,2013-07-01 00:24:00,
2013-06-30 20:39:00,69.9,61.0,29.86,ENE,75,0.0,-999.0,74,-99.99,,,0.00,weatherlink.com 1.10,2013-07-01 00:39:00,
2013-06-30 20:54:00,69.4,61.0,29.86,ENE,75,0.0,-999.0,74,-99.99,,,0.00,weatherlink.com 1.10,2013-07-01 00:54:00,
2013-06-30 21:09:00,68.8,61.0,29.86,ESE,106,0.0,-999.0,75,-99.99,,,0.00,weatherlink.com 1.10,2013-07-01 01:09:00,
2013-06-30 21:24:00,68.3,60.0,29.86,East,96,2.0,-999.0,75,-99.99,,,0.00,weatherlink.com 1.10,2013-07-01 01:24:00,
2013-06-30 21:39:00,67.6,60.0,29.87,ESE,102,0.0,-999.0,76,-99.99,,,0.00,weatherlink.com 1.10,2013-07-01 01:39:00,
2013-06-30 21:54:00,66.8,59.0,29.87,ESE,102,0.0,-999.0,77,-99.99,,,0.00,weatherlink.com 1.10,2013-07-01 01:54:00,
2013-06-30 22:09:00,66.2,59.0,29.87,East,80,1.0,-999.0,77,-99.99,,,0.00,weatherlink.com 1.10,2013-07-01 02:09:00,
2013-06-30 22:24:00,65.9,59.0,29.88,SE,135,0.0,-999.0,77,-99.99,,,0.00,weatherlink.com 1.10,2013-07-01 02:24:00,
2013-06-30 22:39:00,65.2,59.0,29.89,SE,135,0.0,-999.0,79,-99.99,,,0.00,weatherlink.com 1.10,2013-07-01 02:39:00,
2013-06-30 22:54:00,64.3,58.0,29.89,SE,126,0.0,-999.0,79,-99.99,,,0.00,weatherlink.com 1.10,2013-07-01 02:54:00,
2013-06-30 23:09:00,63.6,55.0,29.89,ESE,111,0.0,-999.0,73,-99.99,,,0.00,weatherlink.com 1.10,2013-07-01 03:09:00,
2013-06-30 23:24:00,63.1,54.0,29.89,ESE,115,0.0,-999.0,71,-99.99,,,0.00,weatherlink.com 1.10,2013-07-01 03:24:00,
2013-06-30 23:39:00,62.6,52.0,29.89,ESE,111,1.0,-999.0,69,-99.99,,,0.00,weatherlink.com 1.10,2013-07-01 03:39:00,
2013-06-30 23:54:00,62.1,51.0,29.90,East,96,0.0,-999.0,66,-99.99,,,0.00,weatherlink.com 1.10,2013-07-01 03:54:00,